QPF
0.27 0.34 0.47 0.66 0.76 0.88 1.06 1.09 1.01 0.94 0.80 0.57 0.37 0.23 0.17 0.13 0.10 0.07 0.07 0.07 0.08 0.05 0.02 0.01 0.00 0.00 0.00 0.00 0.00 0.00 0.00 0.00 0.01 0.01 0.01 0.01 0.01 0.01 0.01 0.03 0.04 0.03 0.05
0.35 0.47 0.61 0.66 0.75 0.89 1.11 1.19 1.19 1.09 0.90 0.60 0.36 0.26 0.21 0.16 0.12 0.11 0.09 0.07 0.05 0.03 0.01 0.00 0.00 0.00 0.00 0.00 0.00 0.00 0.00 0.00 0.00 0.01 0.01 0.01 0.01 0.01 0.02 0.04 0.05 0.05 0.06
0.54 0.73 0.67 0.64 0.73 0.85 0.95 0.99 0.93 0.78 0.58 0.38 0.26 0.21 0.17 0.13 0.09 0.06 0.05 0.03 0.02 0.01 0.01 0.00 0.00 0.00 0.00 0.00 0.00 0.00 0.00 0.00 0.00 0.00 0.01 0.01 0.01 0.01 0.01 0.02 0.03 0.04 0.04
0.37 0.43 0.50 0.55 0.64 0.70 0.80 0.85 0.76 0.51 0.29 0.18 0.16 0.14 0.12 0.09 0.06 0.05 0.04 0.03 0.02 0.01 0.00 0.00 0.00 0.00 0.00 0.00 0.00 0.00 0.00 0.00 0.00 0.00 0.01 0.01 0.01 0.02 0.01 0.01 0.02 0.03 0.03
0.16 0.13 0.21 0.33 0.37 0.38 0.38 0.42 0.46 0.33 0.23 0.16 0.13 0.12 0.10 0.08 0.06 0.05 0.06 0.06 0.05 0.02 0.01 0.00 0.00 0.00 0.00 0.00 0.00 0.00 0.00 0.00 0.00 0.00 0.00 0.00 0.01 0.02 0.02 0.01 0.01 0.01 0.02
0.07 0.06 0.08 0.11 0.12 0.14 0.17 0.18 0.25 0.25 0.24 0.22 0.19 0.15 0.13 0.10 0.09 0.08 0.11 0.12 0.08 0.03 0.02 0.01 0.01 0.01 0.00 0.00 0.00 0.00 0.00 0.00 0.00 0.00 0.00 0.00 0.00 0.01 0.02 0.02 0.01 0.01 0.01
0.05 0.04 0.04 0.05 0.07 0.10 0.12 0.14 0.15 0.21 0.27 0.26 0.26 0.23 0.20 0.16 0.13 0.11 0.10 0.09 0.08 0.06 0.05 0.04 0.04 0.02 0.01 0.00 0.00 0.00 0.00 0.00 0.00 0.00 0.00 0.00 0.01 0.01 0.01 0.01 0.01 0.01 0.01
0.04 0.03 0.03 0.03 0.04 0.06 0.08 0.10 0.12 0.14 0.17 0.17 0.18 0.16 0.15 0.15 0.15 0.13 0.10 0.09 0.09 0.09 0.09 0.07 0.06 0.04 0.02 0.01 0.00 0.00 0.00 0.00 0.00 0.00 0.00 0.00 0.00 0.01 0.01 0.01 0.02 0.01 0.01
0.04 0.03 0.02 0.02 0.02 0.03 0.04 0.04 0.05 0.07 0.09 0.10 0.11 0.12 0.12 0.11 0.12 0.11 0.10 0.09 0.10 0.11 0.11 0.10 0.08 0.05 0.03 0.01 0.01 0.00 0.00 0.00 0.00 0.00 0.00 0.00 0.00 0.01 0.01 0.01 0.02 0.02 0.01
0.01 0.00 0.00 0.00 0.01 0.01 0.01 0.01 0.01 0.01 0.02 0.03 0.04 0.05 0.05 0.06 0.06 0.06 0.06 0.06 0.06 0.07 0.08 0.08 0.06 0.05 0.03 0.02 0.01 0.01 0.00 0.00 0.00 0.00 0.00 0.00 0.00 0.01 0.01 0.01 0.02 0.04 0.03
0.00 0.00 0.00 0.00 0.00 0.00 0.00 0.00 0.00 0.00 0.00 0.00 0.00 0.01 0.01 0.01 0.01 0.01 0.02 0.02 0.02 0.02 0.02 0.03 0.03 0.03 0.03 0.03 0.02 0.01 0.01 0.00 0.00 0.00 0.00 0.00 0.00 0.00 0.01 0.01 0.02 0.04 0.06
0.00 0.00 0.00 0.00 0.00 0.00 0.00 0.00 0.00 0.00 0.00 0.00 0.00 0.00 0.00 0.00 0.00 0.00 0.00 0.00 0.00 0.01 0.01 0.02 0.02 0.02 0.02 0.02 0.02 0.02 0.01 0.01 0.00 0.00 0.00 0.00 0.00 0.00 0.01 0.01 0.03 0.05 0.06
0.00 0.00 0.00 0.00 0.00 0.00 0.00 0.00 0.00 0.00 0.00 0.00 0.00 0.00 0.00 0.00 0.00 0.00 0.00 0.00 0.00 0.00 0.00 0.01 0.01 0.02 0.02 0.02 0.02 0.02 0.02 0.01 0.01 0.01 0.01 0.00 0.00 0.00 0.00 0.01 0.02 0.04 0.06
0.00 0.00 0.00 0.00 0.00 0.00 0.00 0.00 0.00 0.00 0.00 0.00 0.00 0.00 0.00 0.00 0.00 0.00 0.00 0.00 0.00 0.00 0.00 0.00 0.00 0.01 0.01 0.01 0.02 0.03 0.02 0.02 0.02 0.01 0.01 0.00 0.00 0.00 0.00 0.00 0.01 0.03 0.05
0.00 0.00 0.00 0.00 0.00 0.00 0.00 0.00 0.00 0.00 0.00 0.00 0.00 0.00 0.00 0.00 0.00 0.00 0.00 0.00 0.00 0.00 0.00 0.00 0.00 0.00 0.01 0.01 0.02 0.02 0.03 0.02 0.02 0.02 0.01 0.01 0.01 0.00 0.00 0.00 0.01 0.02 0.04
0.00 0.00 0.00 0.00 0.00 0.00 0.00 0.00 0.00 0.00 0.00 0.00 0.00 0.00 0.00 0.00 0.00 0.00 0.00 0.00 0.01 0.01 0.01 0.00 0.00 0.00 0.00 0.01 0.01 0.02 0.02 0.02 0.02 0.03 0.02 0.02 0.01 0.01 0.00 0.00 0.01 0.02 0.03
0.00 0.00 0.00 0.00 0.00 0.00 0.00 0.00 0.00 0.00 0.00 0.00 0.00 0.00 0.00 0.00 0.00 0.00 0.00 0.01 0.01 0.01 0.01 0.01 0.01 0.00 0.00 0.01 0.01 0.02 0.02 0.02 0.02 0.03 0.03 0.03 0.02 0.01 0.00 0.00 0.00 0.01 0.02
0.00 0.00 0.00 0.00 0.00 0.00 0.00 0.00 0.00 0.00 0.00 0.00 0.00 0.00 0.00 0.00 0.00 0.00 0.01 0.01 0.01 0.01 0.01 0.01 0.01 0.01 0.00 0.00 0.01 0.02 0.02 0.03 0.03 0.04 0.04 0.03 0.02 0.01 0.01 0.00 0.00 0.01 0.02
0.00 0.00 0.00 0.00 0.00 0.00 0.00 0.00 0.00 0.00 0.00 0.00 0.00 0.00 0.00 0.00 0.00 0.00 0.00 0.01 0.01 0.01 0.01 0.01 0.01 0.01 0.00 0.01 0.01 0.02 0.02 0.04 0.05 0.05 0.05 0.03 0.02 0.02 0.01 0.01 0.01 0.01 0.02
0.00 0.00 0.00 0.00 0.00 0.00 0.00 0.00 0.00 0.00 0.00 0.00 0.00 0.00 0.00 0.00 0.00 0.00 0.00 0.00 0.01 0.01 0.01 0.00 0.01 0.01 0.01 0.01 0.01 0.02 0.03 0.06 0.08 0.08 0.07 0.06 0.04 0.03 0.02 0.01 0.01 0.02 0.02
0.00 0.00 0.00 0.00 0.00 0.00 0.00 0.01 0.01 0.01 0.00 0.01 0.01 0.01 0.01 0.01 0.01 0.01 0.01 0.01 0.01 0.01 0.01 0.01 0.01 0.01 0.02 0.01 0.01 0.02 0.04 0.08 0.13 0.15 0.12 0.11 0.08 0.05 0.03 0.02 0.02 0.02 0.02
0.00 0.00 0.00 0.00 0.00 0.00 0.01 0.01 0.01 0.01 0.01 0.01 0.01 0.01 0.01 0.01 0.01 0.01 0.01 0.01 0.01 0.01 0.00 0.00 0.01 0.02 0.02 0.02 0.01 0.03 0.05 0.08 0.16 0.22 0.22 0.20 0.14 0.09 0.05 0.04 0.04 0.04 0.03
0.00 0.00 0.00 0.00 0.00 0.01 0.01 0.02 0.02 0.01 0.01 0.01 0.01 0.01 0.01 0.01 0.01 0.01 0.01 0.01 0.01 0.01 0.01 0.01 0.01 0.02 0.03 0.03 0.02 0.03 0.06 0.09 0.15 0.26 0.31 0.28 0.20 0.12 0.07 0.06 0.06 0.05 0.03
0.00 0.00 0.01 0.01 0.01 0.01 0.01 0.02 0.02 0.03 0.03 0.02 0.02 0.01 0.01 0.01 0.01 0.01 0.01 0.01 0.01 0.01 0.01 0.01 0.01 0.02 0.04 0.05 0.04 0.05 0.07 0.11 0.17 0.27 0.35 0.35 0.27 0.17 0.10 0.07 0.05 0.04 0.04
0.00 0.01 0.01 0.02 0.02 0.02 0.02 0.02 0.03 0.04 0.04 0.03 0.03 0.02 0.02 0.02 0.02 0.01 0.01 0.01 0.01 0.01 0.01 0.01 0.01 0.02 0.03 0.04 0.04 0.06 0.07 0.12 0.21 0.32 0.44 0.40 0.30 0.18 0.10 0.06 0.04 0.04 0.05
0.01 0.02 0.03 0.03 0.03 0.03 0.03 0.03 0.04 0.05 0.06 0.05 0.04 0.03 0.03 0.03 0.03 0.02 0.02 0.01 0.01 0.00 0.00 0.00 0.00 0.01 0.01 0.01 0.02 0.07 0.08 0.12 0.23 0.34 0.45 0.40 0.27 0.16 0.10 0.07 0.04 0.03 0.03
MSLP
1011.03 1011.35 1011.66 1011.93 1012.13 1012.23 1012.21 1012.06 1011.79 1011.41 1010.97 1010.50 1010.04 1009.63 1009.29 1009.06 1008.94 1008.94 1009.04 1009.24 1009.52 1009.86 1010.23 1010.62 1011.00 1011.35 1011.66 1011.91 1012.08 1012.18 1012.20 1012.13 1011.98 1011.77 1011.50 1011.18 1010.85 1010.51 1010.20 1009.94 1009.75 1009.64 1009.63
1011.79 1011.95 1012.12 1012.25 1012.34 1012.36 1012.30 1012.17 1011.95 1011.68 1011.35 1011.00 1010.63 1010.27 1009.94 1009.65 1009.43 1009.29 1009.24 1009.30 1009.46 1009.71 1010.04 1010.41 1010.81 1011.19 1011.52 1011.80 1012.00 1012.12 1012.15 1012.11 1012.00 1011.82 1011.60 1011.33 1011.02 1010.70 1010.37 1010.05 1009.78 1009.55 1009.40
1012.23 1012.23 1012.25 1012.26 1012.26 1012.23 1012.17 1012.08 1011.96 1011.81 1011.62 1011.41 1011.16 1010.87 1010.57 1010.25 1009.95 1009.70 1009.52 1009.45 1009.48 1009.63 1009.89 1010.21 1010.58 1010.95 1011.29 1011.57 1011.78 1011.92 1011.98 1011.97 1011.91 1011.80 1011.64 1011.44 1011.20 1010.91 1010.59 1010.26 1009.92 1009.60 1009.33
1012.43 1012.29 1012.19 1012.11 1012.05 1012.00 1011.96 1011.92 1011.89 1011.86 1011.81 1011.73 1011.59 1011.39 1011.12 1010.80 1010.45 1010.12 1009.84 1009.64 1009.57 1009.62 1009.78 1010.04 1010.35 1010.68 1010.99 1011.25 1011.45 1011.59 1011.67 1011.70 1011.70 1011.66 1011.59 1011.47 1011.31 1011.09 1010.81 1010.48 1010.12 1009.74 1009.38
1012.51 1012.27 1012.09 1011.97 1011.88 1011.83 1011.81 1011.83 1011.87 1011.93 1011.97 1011.98 1011.93 1011.79 1011.57 1011.25 1010.88 1010.50 1010.15 1009.88 1009.71 1009.66 1009.74 1009.91 1010.14 1010.41 1010.66 1010.88 1011.05 1011.18 1011.27 1011.33 1011.38 1011.41 1011.42 1011.39 1011.31 1011.17 1010.95 1010.65 1010.30 1009.91 1009.51
1012.58 1012.29 1012.09 1011.95 1011.87 1011.83 1011.84 1011.88 1011.96 1012.06 1012.15 1012.21 1012.21 1012.11 1011.91 1011.61 1011.25 1010.85 1010.47 1010.14 1009.91 1009.78 1009.77 1009.85 1010.00 1010.18 1010.36 1010.51 1010.64 1010.73 1010.81 1010.89 1010.96 1011.04 1011.11 1011.15 1011.15 1011.08 1010.92 1010.68 1010.37 1010.01 1009.63
1012.69 1012.41 1012.23 1012.12 1012.07 1012.05 1012.07 1012.12 1012.19 1012.28 1012.37 1012.43 1012.43 1012.35 1012.17 1011.89 1011.55 1011.16 1010.77 1010.43 1010.16 1009.98 1009.90 1009.90 1009.95 1010.03 1010.12 1010.19 1010.25 1010.30 1010.35 1010.41 1010.49 1010.58 1010.68 1010.75 1010.79 1010.78 1010.68 1010.50 1010.26 1009.97 1009.65
1012.85 1012.63 1012.51 1012.45 1012.43 1012.43 1012.45 1012.48 1012.52 1012.57 1012.61 1012.63 1012.61 1012.52 1012.35 1012.10 1011.79 1011.44 1011.08 1010.74 1010.47 1010.25 1010.11 1010.03 1009.99 1009.98 1009.97 1009.95 1009.93 1009.92 1009.91 1009.93 1009.98 1010.05 1010.13 1010.20 1010.25 1010.26 1010.21 1010.09 1009.93 1009.73 1009.51
1013.03 1012.89 1012.84 1012.84 1012.85 1012.87 1012.87 1012.86 1012.84 1012.83 1012.81 1012.77 1012.71 1012.60 1012.44 1012.23 1011.96 1011.66 1011.35 1011.05 1010.78 1010.55 1010.37 1010.22 1010.10 1010.00 1009.89 1009.79 1009.68 1009.59 1009.52 1009.47 1009.46 1009.47 1009.50 1009.54 1009.56 1009.56 1009.52 1009.46 1009.37 1009.27 1009.19
1013.18 1013.11 1013.12 1013.16 1013.19 1013.20 1013.18 1013.12 1013.04 1012.96 1012.87 1012.78 1012.68 1012.57 1012.42 1012.24 1012.03 1011.79 1011.54 1011.29 1011.05 1010.82 1010.61 1010.41 1010.23 1010.04 1009.85 1009.66 1009.48 1009.31 1009.17 1009.05 1008.96 1008.89 1008.84 1008.81 1008.77 1008.73 1008.69 1008.66 1008.63 1008.64 1008.68
1013.24 1013.21 1013.24 1013.29 1013.32 1013.30 1013.24 1013.13 1013.00 1012.85 1012.71 1012.58 1012.46 1012.35 1012.22 1012.09 1011.94 1011.77 1011.59 1011.39 1011.19 1010.97 1010.75 1010.52 1010.29 1010.04 1009.79 1009.54 1009.29 1009.06 1008.84 1008.65 1008.49 1008.34 1008.20 1008.08 1007.97 1007.88 1007.81 1007.78 1007.81 1007.90 1008.06
1013.18 1013.15 1013.16 1013.18 1013.16 1013.09 1012.98 1012.82 1012.64 1012.46 1012.29 1012.14 1012.01 1011.91 1011.82 1011.73 1011.64 1011.54 1011.42 1011.28 1011.12 1010.93 1010.71 1010.47 1010.21 1009.93 1009.65 1009.35 1009.07 1008.79 1008.53 1008.28 1008.05 1007.83 1007.61 1007.41 1007.23 1007.07 1006.97 1006.94 1006.99 1007.14 1007.40
1013.03 1012.94 1012.87 1012.80 1012.70 1012.57 1012.39 1012.19 1011.98 1011.77 1011.58 1011.43 1011.31 1011.23 1011.17 1011.13 1011.09 1011.05 1010.99 1010.91 1010.79 1010.64 1010.44 1010.21 1009.95 1009.67 1009.37 1009.07 1008.76 1008.47 1008.19 1007.91 1007.64 1007.36 1007.09 1006.83 1006.58 1006.38 1006.24 1006.20 1006.27 1006.46 1006.78
1012.79 1012.59 1012.41 1012.22 1012.02 1011.79 1011.55 1011.30 1011.06 1010.84 1010.65 1010.51 1010.40 1010.34 1010.31 1010.30 1010.30 1010.31 1010.30 1010.26 1010.19 1010.08 1009.93 1009.73 1009.49 1009.22 1008.94 1008.65 1008.36 1008.08 1007.79 1007.51 1007.23 1006.93 1006.64 1006.34 1006.06 1005.83 1005.67 1005.62 1005.68 1005.90 1006.25
1012.50 1012.17 1011.84 1011.51 1011.19 1010.87 1010.56 1010.26 1010.00 1009.77 1009.58 1009.44 1009.35 1009.29 1009.27 1009.29 1009.31 1009.35 1009.37 1009.38 1009.35 1009.29 1009.18 1009.03 1008.84 1008.61 1008.37 1008.11 1007.85 1007.59 1007.33 1007.07 1006.80 1006.52 1006.22 1005.93 1005.65 1005.41 1005.25 1005.19 1005.27 1005.48 1005.84
1012.19 1011.70 1011.23 1010.76 1010.32 1009.91 1009.53 1009.20 1008.91 1008.68 1008.48 1008.34 1008.24 1008.18 1008.15 1008.16 1008.19 1008.24 1008.29 1008.32 1008.34 1008.33 1008.27 1008.18 1008.04 1007.87 1007.67 1007.46 1007.24 1007.02 1006.80 1006.57 1006.33 1006.08 1005.82 1005.56 1005.31 1005.10 1004.96 1004.91 1004.99 1005.21 1005.57
1011.85 1011.24 1010.63 1010.05 1009.51 1009.01 1008.58 1008.21 1007.91 1007.65 1007.45 1007.29 1007.17 1007.08 1007.03 1007.02 1007.03 1007.07 1007.13 1007.19 1007.25 1007.28 1007.28 1007.24 1007.17 1007.05 1006.91 1006.74 1006.57 1006.38 1006.20 1006.01 1005.82 1005.61 1005.40 1005.19 1004.99 1004.83 1004.74 1004.73 1004.83 1005.06 1005.41
1011.48 1010.78 1010.07 1009.41 1008.79 1008.25 1007.77 1007.37 1007.04 1006.77 1006.54 1006.35 1006.20 1006.07 1005.98 1005.93 1005.91 1005.94 1005.99 1006.07 1006.15 1006.23 1006.28 1006.30 1006.28 1006.21 1006.12 1005.99 1005.86 1005.71 1005.56 1005.41 1005.25 1005.10 1004.95 1004.81 1004.68 1004.59 1004.56 1004.60 1004.74 1004.99 1005.35
1011.08 1010.32 1009.56 1008.85 1008.19 1007.61 1007.11 1006.69 1006.34 1006.04 1005.78 1005.55 1005.35 1005.18 1005.04 1004.94 1004.89 1004.89 1004.93 1005.01 1005.12 1005.23 1005.32 1005.39 1005.42 1005.40 1005.34 1005.25 1005.14 1005.02 1004.90 1004.78 1004.67 1004.57 1004.48 1004.41 1004.36 1004.35 1004.39 1004.51 1004.70 1004.99 1005.36
1010.62 1009.85 1009.08 1008.35 1007.68 1007.08 1006.56 1006.12 1005.75 1005.42 1005.12 1004.85 1004.61 1004.38 1004.19 1004.05 1003.96 1003.93 1003.96 1004.05 1004.17 1004.30 1004.43 1004.54 1004.60 1004.63 1004.60 1004.54 1004.46 1004.36 1004.26 1004.17 1004.10 1004.04 1004.01 1004.01 1004.04 1004.11 1004.24 1004.43 1004.70 1005.03 1005.44
1010.13 1009.37 1008.60 1007.87 1007.20 1006.60 1006.07 1005.61 1005.21 1004.85 1004.52 1004.21 1003.92 1003.65 1003.41 1003.23 1003.11 1003.06 1003.08 1003.16 1003.29 1003.44 1003.60 1003.73 1003.83 1003.89 1003.90 1003.87 1003.82 1003.74 1003.67 1003.61 1003.57 1003.56 1003.58 1003.65 1003.75 1003.90 1004.11 1004.38 1004.72 1005.12 1005.58
1009.63 1008.88 1008.13 1007.41 1006.74 1006.13 1005.59 1005.10 1004.67 1004.28 1003.91 1003.56 1003.23 1002.92 1002.66 1002.44 1002.30 1002.23 1002.24 1002.32 1002.45 1002.61 1002.79 1002.95 1003.09 1003.18 1003.23 1003.24 1003.22 1003.18 1003.14 1003.12 1003.12 1003.15 1003.23 1003.35 1003.52 1003.74 1004.03 1004.37 1004.78 1005.24 1005.76
1009.14 1008.41 1007.67 1006.95 1006.27 1005.64 1005.07 1004.55 1004.09 1003.65 1003.25 1002.86 1002.50 1002.17 1001.88 1001.65 1001.49 1001.41 1001.42 1001.49 1001.63 1001.80 1001.99 1002.18 1002.35 1002.48 1002.58 1002.63 1002.66 1002.67 1002.69 1002.71 1002.76 1002.84 1002.96 1003.13 1003.36 1003.64 1003.99 1004.39 1004.86 1005.38 1005.95
1008.70 1007.97 1007.22 1006.49 1005.79 1005.13 1004.52 1003.96 1003.45 1002.97 1002.53 1002.11 1001.73 1001.38 1001.08 1000.84 1000.68 1000.60 1000.59 1000.67 1000.81 1000.99 1001.20 1001.42 1001.62 1001.80 1001.94 1002.06 1002.15 1002.22 1002.30 1002.38 1002.48 1002.61 1002.78 1003.00 1003.27 1003.60 1003.98 1004.43 1004.95 1005.52 1006.13
1008.33 1007.58 1006.82 1006.06 1005.32 1004.62 1003.96 1003.35 1002.78 1002.26 1001.78 1001.34 1000.93 1000.57 1000.27 1000.03 999.87 999.79 999.79 999.87 1000.01 1000.21 1000.43 1000.68 1000.92 1001.14 1001.34 1001.52 1001.68 1001.83 1001.97 1002.11 1002.27 1002.45 1002.67 1002.92 1003.22 1003.58 1003.99 1004.47 1005.01 1005.61 1006.25
1008.04 1007.27 1006.48 1005.68 1004.90 1004.14 1003.42 1002.76 1002.14 1001.57 1001.05 1000.58 1000.15 999.79 999.49 999.26 999.10 999.03 999.04 999.13 999.28 999.49 999.74 1000.01 1000.28 1000.55 1000.81 1001.05 1001.28 1001.49 1001.69 1001.90 1002.11 1002.33 1002.58 1002.86 1003.18 1003.55 1003.97 1004.46 1005.01 1005.62 1006.28
Thickness
5777 5780 5780 5775 5768 5764 5758 5750 5748 5746 5742 5742 5739 5740 5740 5742 5744 5744 5742 5740 5737 5735 5733 5732 5732 5731 5729 5729 5730 5729 5729 5729 5730 5728 5727 5730 5733 5732 5732 5731 5729 5728 5728
5766 5763 5762 5761 5757 5754 5749 5745 5743 5736 5733 5730 5731 5732 5733 5734 5736 5738 5736 5735 5733 5730 5729 5727 5726 5725 5724 5724 5724 5724 5723 5723 5725 5721 5718 5716 5719 5725 5729 5727 5726 5725 5724
5751 5751 5750 5748 5747 5743 5739 5738 5734 5732 5730 5729 5728 5729 5726 5725 5725 5726 5727 5728 5727 5725 5724 5723 5721 5720 5720 5718 5718 5719 5718 5716 5718 5718 5714 5709 5706 5711 5717 5720 5721 5720 5719
5741 5741 5740 5739 5738 5735 5732 5729 5726 5724 5726 5726 5723 5719 5715 5714 5716 5717 5718 5719 5719 5719 5719 5718 5717 5716 5715 5714 5714 5714 5714 5713 5711 5712 5713 5710 5708 5705 5705 5709 5713 5714 5714
5729 5729 5729 5727 5727 5725 5721 5718 5715 5715 5715 5715 5714 5712 5710 5709 5710 5710 5710 5709 5710 5711 5712 5712 5711 5710 5709 5709 5708 5708 5709 5708 5707 5706 5706 5706 5705 5705 5701 5700 5703 5706 5709
5719 5719 5718 5716 5714 5712 5709 5706 5704 5703 5702 5702 5702 5702 5700 5699 5699 5699 5698 5699 5699 5701 5703 5703 5703 5703 5702 5702 5702 5702 5703 5703 5703 5703 5703 5701 5699 5699 5699 5698 5697 5698 5702
5712 5709 5707 5706 5703 5700 5696 5694 5691 5689 5688 5688 5688 5688 5688 5687 5686 5685 5686 5686 5688 5689 5690 5693 5693 5694 5695 5695 5696 5696 5696 5697 5698 5698 5699 5699 5699 5699 5698 5696 5695 5695 5697
5703 5701 5699 5696 5693 5689 5685 5682 5678 5675 5674 5673 5672 5672 5672 5671 5671 5672 5672 5673 5674 5676 5678 5680 5682 5684 5685 5687 5688 5688 5689 5691 5692 5694 5695 5696 5696 5697 5696 5695 5693 5691 5691
5696 5693 5691 5687 5683 5678 5674 5670 5666 5663 5660 5658 5656 5655 5655 5654 5654 5654 5655 5657 5659 5662 5664 5666 5669 5672 5674 5676 5678 5680 5682 5684 5686 5687 5689 5691 5693 5694 5694 5694 5692 5688 5686
5686 5683 5680 5677 5672 5668 5664 5659 5655 5650 5646 5643 5641 5640 5638 5637 5636 5636 5637 5639 5641 5644 5647 5650 5653 5656 5660 5664 5667 5670 5673 5676 5678 5680 5683 5686 5688 5689 5690 5691 5691 5690 5686
5675 5672 5668 5664 5661 5656 5651 5645 5640 5636 5632 5628 5625 5623 5621 5619 5619 5618 5619 5621 5623 5626 5630 5633 5636 5640 5644 5649 5653 5658 5663 5665 5669 5672 5675 5679 5682 5684 5686 5687 5687 5687 5686
5668 5663 5658 5652 5646 5640 5635 5629 5624 5619 5615 5612 5608 5606 5604 5602 5600 5600 5602 5603 5605 5608 5611 5614 5618 5622 5628 5633 5638 5643 5650 5654 5658 5663 5667 5671 5675 5678 5680 5682 5683 5683 5684
5658 5651 5645 5638 5632 5627 5621 5615 5609 5604 5600 5595 5590 5586 5583 5580 5579 5579 5581 5582 5584 5587 5591 5594 5599 5604 5610 5616 5623 5629 5636 5642 5648 5654 5658 5663 5667 5670 5673 5676 5678 5680 5681
5643 5637 5630 5624 5619 5613 5608 5602 5596 5591 5585 5579 5573 5568 5565 5562 5560 5560 5559 5561 5563 5566 5570 5575 5580 5585 5591 5598 5606 5613 5621 5629 5636 5643 5649 5654 5659 5663 5667 5670 5673 5675 5676
5632 5626 5619 5612 5606 5600 5595 5589 5584 5579 5573 5567 5561 5557 5553 5550 5547 5545 5544 5545 5545 5548 5552 5556 5560 5566 5572 5581 5589 5596 5605 5613 5622 5630 5638 5645 5651 5657 5661 5665 5668 5670 5671
5621 5615 5609 5602 5595 5589 5583 5578 5573 5569 5564 5559 5555 5552 5548 5544 5541 5539 5537 5536 5535 5536 5537 5540 5544 5548 5556 5564 5571 5578 5587 5597 5606 5615 5625 5633 5641 5648 5654 5659 5662 5666 5667
5610 5604 5597 5590 5584 5579 5574 5569 5565 5562 5557 5553 5550 5547 5544 5541 5539 5538 5536 5534 5532 5531 5530 5531 5532 5536 5540 5547 5554 5561 5570 5579 5590 5600 5610 5620 5630 5636 5643 5649 5655 5659 5663
5603 5595 5588 5582 5577 5572 5566 5562 5558 5554 5550 5547 5544 5542 5539 5538 5536 5535 5533 5532 5530 5528 5527 5527 5527 5528 5532 5536 5540 5546 5553 5562 5573 5584 5596 5606 5616 5625 5632 5639 5644 5649 5654
5592 5585 5578 5572 5567 5561 5556 5551 5547 5544 5541 5539 5536 5535 5533 5531 5530 5529 5528 5527 5526 5525 5525 5525 5525 5525 5527 5530 5532 5536 5540 5547 5558 5569 5581 5593 5604 5614 5621 5629 5634 5639 5644
5582 5574 5568 5561 5554 5549 5544 5538 5535 5532 5529 5528 5527 5526 5524 5523 5522 5522 5522 5522 5521 5522 5522 5523 5522 5522 5523 5525 5527 5529 5531 5537 5546 5556 5568 5580 5591 5601 5609 5618 5625 5629 5634
5572 5564 5556 5549 5542 5537 5531 5525 5522 5519 5518 5517 5516 5514 5513 5513 5513 5514 5514 5515 5515 5516 5516 5518 5519 5519 5520 5522 5523 5524 5525 5529 5536 5544 5555 5567 5578 5588 5597 5607 5615 5622 5626
5563 5555 5546 5539 5532 5526 5519 5514 5511 5509 5507 5505 5504 5504 5503 5503 5506 5506 5506 5507 5508 5509 5510 5511 5513 5515 5517 5519 5521 5521 5522 5524 5528 5536 5544 5555 5566 5576 5586 5596 5603 5610 5615
5553 5546 5537 5531 5524 5516 5509 5504 5502 5499 5497 5495 5494 5493 5493 5494 5495 5496 5497 5499 5501 5502 5505 5506 5508 5510 5513 5515 5518 5518 5517 5519 5522 5529 5537 5546 5555 5565 5576 5584 5592 5600 5605
5545 5538 5530 5523 5517 5510 5503 5497 5494 5490 5488 5486 5485 5485 5484 5485 5486 5487 5490 5492 5495 5497 5500 5502 5503 5506 5508 5510 5512 5512 5512 5514 5517 5523 5530 5538 5546 5556 5566 5575 5583 5590 5596
5539 5531 5523 5516 5510 5504 5498 5492 5487 5484 5481 5480 5479 5479 5478 5479 5480 5481 5482 5486 5490 5493 5496 5498 5500 5502 5504 5508 5510 5509 5508 5509 5512 5516 5523 5530 5538 5548 5558 5567 5574 5580 5585
5534 5527 5518 5511 5505 5499 5493 5488 5483 5479 5477 5476 5475 5474 5473 5473 5474 5474 5477 5481 5485 5489 5493 5496 5498 5502 5505 5507 5506 5506 5506 5505 5507 5511 5518 5526 5533 5543 5553 5561 5567 5572 5578